Regional Weather Roundup
Issued by NWS

Home | Current Version | Previous Version | Text Only | Print | Product List | Glossary Off
Versions: 1 2 3 4 5 6 7 8 9 10 11 12 13 14 15 16 17 18 19 20 21 22 23 24 25 26 27 28 29 30 31 32 33 34 35 36 37 38 39 40 41 42 43 44 45 46 47 48 49 50

917
ASUS43 KBIS 212310
RWRND

NORTH DAKOTA REGIONAL WEATHER ROUNDUP
NATIONAL WEATHER SERVICE BISMARCK ND
500 PM CST SAT JAN 21 2017

NOTE: "FAIR" INDICATES FEW OR NO CLOUDS BELOW 12,000 FEET WITH NO
SIGNIFICANT WEATHER AND/OR OBSTRUCTIONS TO VISIBILITY.


NDZ001>003-009>011-017-220000-
NORTHWEST NORTH DAKOTA

CITY           SKY/WX    TMP DP  RH WIND       PRES   REMARKS
WILLISTON      FAIR      31  25  78 W8        29.46R
MINOT          CLOUDY    28  25  88 SW8       29.43R WCI  20
MINOT AFB      CLOUDY    28  25  91 SW3       29.42R
$$

NDZ018>021-031>035-040>046-220000-
SOUTHWEST NORTH DAKOTA

CITY           SKY/WX    TMP DP  RH WIND       PRES   REMARKS
BISMARCK       CLOUDY    31  28  89 SW7       29.46R
DICKINSON      FAIR      31  24  75 W14       29.42R
GARRISON         N/A     23  22  96 W5        29.43R WCI  17
HETTINGER ARPT CLEAR     29  23  78 NW9       29.46R
$$

NDZ004>008-012>016-024-026-027-054-220000-
NORTHEAST NORTH DAKOTA

CITY           SKY/WX    TMP DP  RH WIND       PRES   REMARKS
GRAND FORKS    CLOUDY    36  32  85 E3        29.48R
GRND FRKS AFB  CLOUDY    35  35  98 E5        29.48R
DEVILS LAKE    CLOUDY    34  34 100 CALM      29.46R FOG
$$

NDZ022-023-025-028>030-036>039-047>053-220000-
SOUTHEAST NORTH DAKOTA

CITY           SKY/WX    TMP DP  RH WIND       PRES   REMARKS
FARGO          CLOUDY    38  34  85 N3        29.46R
JAMESTOWN      CLOUDY    32  32 100 NW7       29.43R FOG
$$





USA.gov is the U.S. government's official web portal to all federal, state and local government web resources and services.